Вернуться в каталог

FENGYUN 1C DEB

АктивенSSO
NORAD 29888·DEBRIS·🇨🇳 China

Запущен May 10, 1999 с Taiyuan Satellite Launch Center

Loading…

Ближайшие Пролёты (ближайшие 24 часа)

TLE

СвежийSource: Space-Track

Эпоха: Sep 14, 2026, 10:06 UTC

1 29888U 99025GJ  26257.42092139  .00000580  00000-0  20405-3 0  9999
2 29888  99.1746 106.0987 0272072 321.1204  37.0675 14.20570475 14151

Отслеживайте FENGYUN 1C DEB в реальном времени с AllMySat

Download on the App Store